MOLNIYA 1-80 1 21118U 91012A 10252.71770955 .00000000 00000-0 10000-3 0 8642 2 21118 61.6495 203.5532 7200890 258.5217 19.8137 2.00668305143368 MOLNIYA 3-40 1 21196U 91022A 10252.74884194 .00000000 00000-0 10000-3 0 2658 2 21196 61.4865 186.1093 7208311 261.2527 18.5626 2.00358779142664 MOLNIYA 1-81 1 21426U 91043A 10250.84121274 .00000178 00000-0 10000-3 0 3511 2 21426 61.9638 177.9467 7143088 269.7787 15.8970 2.00615971140880 MOLNIYA 3-41 1 21706U 91065A 10251.19999365 .00000672 00000-0 29089-3 0 6800 2 21706 62.8725 344.3443 7495251 281.5930 10.3021 2.03589965139067 MOLNIYA 3-42 1 22178U 92067A 10252.69902583 .00000787 00000-0 31552-1 0 8488 2 22178 61.8985 128.7357 7317659 268.2904 15.0026 2.00601345131191 MOLNIYA 1-86 1 22671U 93035A 10252.57197049 .00001933 00000-0 10668-2 0 3409 2 22671 62.1996 70.4025 7472037 275.7256 11.7377 2.03307536127145 MOLNIYA 3-45 1 22729U 93049A 10252.13237363 .00001232 00000-0 10000-3 0 785 2 22729 61.9620 217.1669 7257585 257.8918 19.5466 2.00556082125253 MOLNIYA 1-87 1 22949U 93079A 10252.15818710 -.00001392 00000-0 10135-2 0 5315 2 22949 63.2266 354.3395 7380553 249.7112 22.4488 2.00459115122530 MOLNIYA 1-88 1 23420U 94081A 10251.88555952 .00001132 00000-0 -65070-3 0 1293 2 23420 61.9369 166.7656 7305973 267.7114 15.2918 2.02252628115479 MOLNIYA 3-47 1 23642U 95042A 10251.74774617 -.00000415 00000-0 -19752-3 0 6209 2 23642 62.9247 330.3464 7437719 254.9757 19.1138 2.00650027110545 MOLNIYA 1-89 1 24273U 96045A 10251.88172895 .00000866 00000-0 28437-3 0 7602 2 24273 62.5643 217.4594 6938461 260.8814 21.2996 2.70131288106327 MOLNIYA 1-90 1 24960U 97054A 10251.39492718 -.00000067 00000-0 47763-4 0 8611 2 24960 63.4672 19.7395 7469475 253.2334 19.6993 2.00617892 94981 MOLNIYA 3-49 1 25379U 98040A 10252.39772830 .00160604 -10054-4 87301-4 0 2253 2 25379 63.2402 337.3337 7243663 254.8084 21.2379 2.40937374 89613 MOLNIYA 1-91 1 25485U 98054A 10252.70740742 .00000000 00000-0 10000-3 0 222 2 25485 63.7898 131.2556 6967404 256.5674 23.1660 2.00605484 87531 MOLNIYA 3-50 1 25847U 99036A 10250.97114632 .00000342 00000-0 10000-3 0 9076 2 25847 63.5395 219.2216 6854829 263.9192 20.6636 2.00578147 81833 MOLNIYA 3-51 1 26867U 01030A 10252.78749041 -.00000225 00000-0 00000+0 0 2546 2 26867 64.0711 151.8002 7025801 261.2694 52.7900 2.00550743 66977 MOLNIYA 1-92 1 27707U 03011A 10252.84494580 .00000387 00000-0 10000-3 0 6685 2 27707 64.7908 157.1203 7031543 256.0603 58.4020 2.00660178 54517 MOLNIYA 3-53 1 27834U 03029A 10252.78342068 .00000000 00000-0 10000-3 0 4917 2 27834 64.7794 157.1233 7022693 256.5321 22.6046 2.00612928 52948 MOLNIYA 1-93 1 28163U 04005A 10252.21283951 .00000209 00000-0 10000-3 0 3124 2 28163 64.8586 234.2434 6980914 269.1212 167.7656 2.00654353 48032